Location: Dzierzno
(50.6159°N, 19.2852°E)
Time: 20:33:13
(UTC+00:00)

Cosmos 2297 Rocket - Pass Details

Date: 18 November 2025
Orbit: 837 x 844 km, 71.0° (Epoch: 05 December)

Event Time Altitude Azimuth Distance (km) Brightness Sun altitude
Rises 16:44:16 0° 324° (NW) 3,410 5.7 -17.4°
Reaches altitude 10° 16:49:26 10° 4° (N) 2,475 4.5 -18.2°
Maximum altitude 16:50:26 10° 15° (NNE) 2,443 4.4 -18.4°
Enters shadow 16:51:19 10° 24° (NNE) 2,467 4.3 -18.5°
